#datetime,building,power
2024-03-16T00:00:00,axn,36.50
2024-03-16T00:01:00,axn,36.11
2024-03-16T00:02:00,axn,36.69
2024-03-16T00:03:00,axn,35.72
2024-03-16T00:04:00,axn,36.04
2024-03-16T00:05:00,axn,37.79
2024-03-16T00:06:00,axn,35.53
2024-03-16T00:07:00,axn,37.97
2024-03-16T00:08:00,axn,34.75
2024-03-16T00:09:00,axn,35.07
2024-03-16T00:10:00,axn,34.97
2024-03-16T00:11:00,axn,35.09
2024-03-16T00:12:00,axn,36.07
2024-03-16T00:13:00,axn,36.87
2024-03-16T00:14:00,axn,37.36
2024-03-16T00:15:00,axn,36.60
2024-03-16T00:16:00,axn,36.35
2024-03-16T00:17:00,axn,35.05
2024-03-16T00:18:00,axn,36.07
2024-03-16T00:19:00,axn,36.59
2024-03-16T00:20:00,axn,35.71
2024-03-16T00:21:00,axn,36.89
2024-03-16T00:22:00,axn,35.81
2024-03-16T00:23:00,axn,34.39
2024-03-16T00:24:00,axn,35.93
2024-03-16T00:25:00,axn,31.09
2024-03-16T00:26:00,axn,28.11
2024-03-16T00:27:00,axn,28.00
2024-03-16T00:28:00,axn,27.82
2024-03-16T00:29:00,axn,27.88
2024-03-16T00:30:00,axn,28.07
2024-03-16T00:31:00,axn,27.90
2024-03-16T00:32:00,axn,27.83
2024-03-16T00:33:00,axn,28.12
2024-03-16T00:34:00,axn,27.69
2024-03-16T00:35:00,axn,27.84
2024-03-16T00:36:00,axn,27.88
2024-03-16T00:37:00,axn,27.87
2024-03-16T00:38:00,axn,28.14
2024-03-16T00:39:00,axn,27.78
2024-03-16T00:40:00,axn,27.70
2024-03-16T00:41:00,axn,27.70
2024-03-16T00:42:00,axn,27.64
2024-03-16T00:43:00,axn,27.79
2024-03-16T00:44:00,axn,27.77
2024-03-16T00:45:00,axn,27.95
2024-03-16T00:46:00,axn,28.05
2024-03-16T00:47:00,axn,27.76
2024-03-16T00:48:00,axn,47.64
2024-03-16T00:49:00,axn,27.63
2024-03-16T00:50:00,axn,27.79
2024-03-16T00:51:00,axn,27.85
2024-03-16T00:52:00,axn,27.44
2024-03-16T00:53:00,axn,27.28
2024-03-16T00:54:00,axn,27.27
2024-03-16T00:55:00,axn,27.33
2024-03-16T00:56:00,axn,27.32
2024-03-16T00:57:00,axn,27.40
2024-03-16T00:58:00,axn,27.41
2024-03-16T00:59:00,axn,27.45
2024-03-16T01:00:00,axn,27.41
2024-03-16T01:01:00,axn,28.39
2024-03-16T01:02:00,axn,27.59
2024-03-16T01:03:00,axn,27.51
2024-03-16T01:04:00,axn,27.35
2024-03-16T01:05:00,axn,27.28
2024-03-16T01:06:00,axn,27.27
2024-03-16T01:07:00,axn,27.31
2024-03-16T01:08:00,axn,27.60
2024-03-16T01:09:00,axn,27.61
2024-03-16T01:10:00,axn,27.73
2024-03-16T01:11:00,axn,27.59
2024-03-16T01:12:00,axn,27.28
2024-03-16T01:13:00,axn,27.28
2024-03-16T01:14:00,axn,27.37
2024-03-16T01:15:00,axn,27.36
2024-03-16T01:16:00,axn,27.34
2024-03-16T01:17:00,axn,27.35
2024-03-16T01:18:00,axn,27.27
2024-03-16T01:19:00,axn,27.27
2024-03-16T01:20:00,axn,27.07
2024-03-16T01:21:00,axn,27.10
2024-03-16T01:22:00,axn,27.02
2024-03-16T01:23:00,axn,27.11
2024-03-16T01:24:00,axn,27.17
2024-03-16T01:25:00,axn,27.10
2024-03-16T01:26:00,axn,27.19
2024-03-16T01:27:00,axn,27.14
2024-03-16T01:28:00,axn,26.75
2024-03-16T01:29:00,axn,27.74
2024-03-16T01:30:00,axn,26.93
2024-03-16T01:31:00,axn,27.05
2024-03-16T01:32:00,axn,26.95
2024-03-16T01:33:00,axn,27.19
2024-03-16T01:34:00,axn,26.97
2024-03-16T01:35:00,axn,27.04
2024-03-16T01:36:00,axn,30.26
2024-03-16T01:37:00,axn,27.06
2024-03-16T01:38:00,axn,27.05
2024-03-16T01:39:00,axn,27.09
2024-03-16T01:40:00,axn,26.93
2024-03-16T01:41:00,axn,26.77
2024-03-16T01:42:00,axn,26.70
2024-03-16T01:43:00,axn,26.60
2024-03-16T01:44:00,axn,26.62
2024-03-16T01:45:00,axn,26.66
2024-03-16T01:46:00,axn,26.58
2024-03-16T01:47:00,axn,26.84
2024-03-16T01:48:00,axn,26.80
2024-03-16T01:49:00,axn,26.86
2024-03-16T01:50:00,axn,26.75
2024-03-16T01:51:00,axn,27.18
2024-03-16T01:52:00,axn,26.88
2024-03-16T01:53:00,axn,27.11
2024-03-16T01:54:00,axn,26.93
2024-03-16T01:55:00,axn,26.86
2024-03-16T01:56:00,axn,26.90
2024-03-16T01:57:00,axn,26.89
2024-03-16T01:58:00,axn,26.68
2024-03-16T01:59:00,axn,26.70
2024-03-16T02:00:00,axn,26.80
2024-03-16T02:01:00,axn,26.94
2024-03-16T02:02:00,axn,27.01
2024-03-16T02:03:00,axn,26.82
2024-03-16T02:04:00,axn,27.16
2024-03-16T02:05:00,axn,26.92
2024-03-16T02:06:00,axn,26.72
2024-03-16T02:07:00,axn,26.79
2024-03-16T02:08:00,axn,27.06
2024-03-16T02:09:00,axn,26.49
2024-03-16T02:10:00,axn,27.69
2024-03-16T02:11:00,axn,27.23
2024-03-16T02:12:00,axn,26.90
2024-03-16T02:13:00,axn,27.02
2024-03-16T02:14:00,axn,26.88
2024-03-16T02:15:00,axn,26.91
2024-03-16T02:16:00,axn,27.01
2024-03-16T02:17:00,axn,27.28
2024-03-16T02:18:00,axn,27.02
2024-03-16T02:19:00,axn,27.18
2024-03-16T02:20:00,axn,26.98
2024-03-16T02:21:00,axn,26.58
2024-03-16T02:22:00,axn,26.95
2024-03-16T02:23:00,axn,26.69
2024-03-16T02:24:00,axn,26.75
2024-03-16T02:25:00,axn,26.35
2024-03-16T02:26:00,axn,26.47
2024-03-16T02:27:00,axn,26.18
2024-03-16T02:28:00,axn,26.17
2024-03-16T02:29:00,axn,26.46
2024-03-16T02:30:00,axn,26.47
2024-03-16T02:31:00,axn,26.42
2024-03-16T02:32:00,axn,26.64
2024-03-16T02:33:00,axn,26.48
2024-03-16T02:34:00,axn,26.49
2024-03-16T02:35:00,axn,31.85
2024-03-16T02:36:00,axn,26.37
2024-03-16T02:37:00,axn,26.86
2024-03-16T02:38:00,axn,26.59
2024-03-16T02:39:00,axn,26.47
2024-03-16T02:40:00,axn,26.51
2024-03-16T02:41:00,axn,26.44
2024-03-16T02:42:00,axn,26.48
2024-03-16T02:43:00,axn,26.46
2024-03-16T02:44:00,axn,26.89
2024-03-16T02:45:00,axn,26.52
2024-03-16T02:46:00,axn,26.78
2024-03-16T02:47:00,axn,26.51
2024-03-16T02:48:00,axn,26.42
2024-03-16T02:49:00,axn,26.49
2024-03-16T02:50:00,axn,26.72
2024-03-16T02:51:00,axn,26.73
2024-03-16T02:52:00,axn,26.72
2024-03-16T02:53:00,axn,26.75
2024-03-16T02:54:00,axn,26.97
2024-03-16T02:55:00,axn,26.32
2024-03-16T02:56:00,axn,26.38
2024-03-16T02:57:00,axn,26.63
2024-03-16T02:58:00,axn,26.45
2024-03-16T02:59:00,axn,26.52
2024-03-16T03:00:00,axn,26.54
2024-03-16T03:01:00,axn,26.66
2024-03-16T03:02:00,axn,26.39
2024-03-16T03:03:00,axn,26.41
2024-03-16T03:04:00,axn,26.48
2024-03-16T03:05:00,axn,26.57
2024-03-16T03:06:00,axn,27.63
2024-03-16T03:07:00,axn,26.43
2024-03-16T03:08:00,axn,26.41
2024-03-16T03:09:00,axn,26.52
2024-03-16T03:10:00,axn,26.79
2024-03-16T03:11:00,axn,26.66
2024-03-16T03:12:00,axn,26.49
2024-03-16T03:13:00,axn,26.63
2024-03-16T03:14:00,axn,26.83
2024-03-16T03:15:00,axn,26.75
2024-03-16T03:16:00,axn,26.56
2024-03-16T03:17:00,axn,26.53
2024-03-16T03:18:00,axn,26.61
2024-03-16T03:19:00,axn,26.48
2024-03-16T03:20:00,axn,26.38
2024-03-16T03:21:00,axn,26.89
2024-03-16T03:22:00,axn,26.48
2024-03-16T03:23:00,axn,26.62
2024-03-16T03:24:00,axn,26.51
2024-03-16T03:25:00,axn,26.59
2024-03-16T03:26:00,axn,26.54
2024-03-16T03:27:00,axn,26.57
2024-03-16T03:28:00,axn,26.41
2024-03-16T03:29:00,axn,26.49
2024-03-16T03:30:00,axn,32.43
2024-03-16T03:31:00,axn,32.42
2024-03-16T03:32:00,axn,32.80
2024-03-16T03:33:00,axn,26.55
2024-03-16T03:34:00,axn,26.43
2024-03-16T03:35:00,axn,26.52
2024-03-16T03:36:00,axn,26.59
2024-03-16T03:37:00,axn,26.59
2024-03-16T03:38:00,axn,27.01
2024-03-16T03:39:00,axn,26.81
2024-03-16T03:40:00,axn,26.57
2024-03-16T03:41:00,axn,26.59
2024-03-16T03:42:00,axn,26.60
2024-03-16T03:43:00,axn,26.78
2024-03-16T03:44:00,axn,26.46
2024-03-16T03:45:00,axn,26.41
2024-03-16T03:46:00,axn,26.48
2024-03-16T03:47:00,axn,26.38
2024-03-16T03:48:00,axn,26.35
2024-03-16T03:49:00,axn,26.37
2024-03-16T03:50:00,axn,26.48
2024-03-16T03:51:00,axn,26.61
2024-03-16T03:52:00,axn,26.57
2024-03-16T03:53:00,axn,26.52
2024-03-16T03:54:00,axn,26.38
2024-03-16T03:55:00,axn,26.53
2024-03-16T03:56:00,axn,26.81
2024-03-16T03:57:00,axn,31.83
2024-03-16T03:58:00,axn,26.61
2024-03-16T03:59:00,axn,27.05
2024-03-16T04:00:00,axn,26.77
2024-03-16T04:01:00,axn,26.69
2024-03-16T04:02:00,axn,26.57
2024-03-16T04:03:00,axn,26.62
2024-03-16T04:04:00,axn,26.63
2024-03-16T04:05:00,axn,26.80
2024-03-16T04:06:00,axn,26.88
2024-03-16T04:07:00,axn,26.80
2024-03-16T04:08:00,axn,26.20
2024-03-16T04:09:00,axn,26.27
2024-03-16T04:10:00,axn,26.52
2024-03-16T04:11:00,axn,26.23
2024-03-16T04:12:00,axn,26.13
2024-03-16T04:13:00,axn,26.39
2024-03-16T04:14:00,axn,25.99
2024-03-16T04:15:00,axn,26.19
2024-03-16T04:16:00,axn,26.21
2024-03-16T04:17:00,axn,26.19
2024-03-16T04:18:00,axn,26.16
2024-03-16T04:19:00,axn,25.99
2024-03-16T04:20:00,axn,25.98
2024-03-16T04:21:00,axn,26.25
2024-03-16T04:22:00,axn,26.08
2024-03-16T04:23:00,axn,26.24
2024-03-16T04:24:00,axn,26.18
2024-03-16T04:25:00,axn,26.24
2024-03-16T04:26:00,axn,26.28
2024-03-16T04:27:00,axn,26.35
2024-03-16T04:28:00,axn,31.08
2024-03-16T04:29:00,axn,31.06
2024-03-16T04:30:00,axn,31.61
2024-03-16T04:31:00,axn,31.09
2024-03-16T04:32:00,axn,26.89
2024-03-16T04:33:00,axn,26.65
2024-03-16T04:34:00,axn,26.31
2024-03-16T04:35:00,axn,26.38
2024-03-16T04:36:00,axn,26.30
2024-03-16T04:37:00,axn,26.19
2024-03-16T04:38:00,axn,26.77
2024-03-16T04:39:00,axn,26.31
2024-03-16T04:40:00,axn,26.39
2024-03-16T04:41:00,axn,26.86
2024-03-16T04:42:00,axn,26.64
2024-03-16T04:43:00,axn,41.38
2024-03-16T04:44:00,axn,41.32
2024-03-16T04:45:00,axn,40.80
2024-03-16T04:46:00,axn,40.71
2024-03-16T04:47:00,axn,40.62
2024-03-16T04:48:00,axn,26.54
2024-03-16T04:49:00,axn,27.32
2024-03-16T04:50:00,axn,26.37
2024-03-16T04:51:00,axn,29.22
2024-03-16T04:52:00,axn,26.03
2024-03-16T04:53:00,axn,26.09
2024-03-16T04:54:00,axn,26.05
2024-03-16T04:55:00,axn,26.07
2024-03-16T04:56:00,axn,26.79
2024-03-16T04:57:00,axn,25.85
2024-03-16T04:58:00,axn,26.13
2024-03-16T04:59:00,axn,25.85
2024-03-16T05:00:00,axn,25.86
2024-03-16T05:01:00,axn,28.74
2024-03-16T05:02:00,axn,31.51
2024-03-16T05:03:00,axn,38.91
2024-03-16T05:04:00,axn,39.30
2024-03-16T05:05:00,axn,38.89
2024-03-16T05:06:00,axn,38.42
2024-03-16T05:07:00,axn,38.71
2024-03-16T05:08:00,axn,35.69
2024-03-16T05:09:00,axn,33.24
2024-03-16T05:10:00,axn,32.77
2024-03-16T05:11:00,axn,33.55
2024-03-16T05:12:00,axn,33.52
2024-03-16T05:13:00,axn,33.32
2024-03-16T05:14:00,axn,33.22
2024-03-16T05:15:00,axn,32.80
2024-03-16T05:16:00,axn,32.43
2024-03-16T05:17:00,axn,32.55
2024-03-16T05:18:00,axn,32.73
2024-03-16T05:19:00,axn,32.72
2024-03-16T05:20:00,axn,32.28
2024-03-16T05:21:00,axn,36.96
2024-03-16T05:22:00,axn,36.67
2024-03-16T05:23:00,axn,32.30
2024-03-16T05:24:00,axn,32.76
2024-03-16T05:25:00,axn,32.65
2024-03-16T05:26:00,axn,32.81
2024-03-16T05:27:00,axn,42.73
2024-03-16T05:28:00,axn,42.85
2024-03-16T05:29:00,axn,42.87
2024-03-16T05:30:00,axn,43.33
2024-03-16T05:31:00,axn,33.73
2024-03-16T05:32:00,axn,33.26
2024-03-16T05:33:00,axn,33.18
2024-03-16T05:34:00,axn,33.14
2024-03-16T05:35:00,axn,33.09
2024-03-16T05:36:00,axn,33.04
2024-03-16T05:37:00,axn,33.65
2024-03-16T05:38:00,axn,33.61
2024-03-16T05:39:00,axn,33.76
2024-03-16T05:40:00,axn,33.91
2024-03-16T05:41:00,axn,34.12
2024-03-16T05:42:00,axn,34.17
2024-03-16T05:43:00,axn,34.23
2024-03-16T05:44:00,axn,34.36
2024-03-16T05:45:00,axn,34.96
2024-03-16T05:46:00,axn,34.03
2024-03-16T05:47:00,axn,39.19
2024-03-16T05:48:00,axn,34.28
2024-03-16T05:49:00,axn,35.04
2024-03-16T05:50:00,axn,34.91
2024-03-16T05:51:00,axn,34.89
2024-03-16T05:52:00,axn,34.92
2024-03-16T05:53:00,axn,34.90
2024-03-16T05:54:00,axn,35.22
2024-03-16T05:55:00,axn,34.89
2024-03-16T05:56:00,axn,37.10
2024-03-16T05:57:00,axn,33.51
2024-03-16T05:58:00,axn,33.29
2024-03-16T05:59:00,axn,32.93
2024-03-16T06:00:00,axn,33.09
2024-03-16T06:01:00,axn,33.48
2024-03-16T06:02:00,axn,33.54
2024-03-16T06:03:00,axn,33.59
2024-03-16T06:04:00,axn,33.59
2024-03-16T06:05:00,axn,33.52
2024-03-16T06:06:00,axn,33.88
2024-03-16T06:07:00,axn,32.57
2024-03-16T06:08:00,axn,32.18
2024-03-16T06:09:00,axn,32.06
2024-03-16T06:10:00,axn,32.16
2024-03-16T06:11:00,axn,32.11
2024-03-16T06:12:00,axn,32.31
2024-03-16T06:13:00,axn,32.52
2024-03-16T06:14:00,axn,32.46
2024-03-16T06:15:00,axn,32.44
2024-03-16T06:16:00,axn,37.00
2024-03-16T06:17:00,axn,32.48
2024-03-16T06:18:00,axn,32.45
2024-03-16T06:19:00,axn,33.07
2024-03-16T06:20:00,axn,32.94
2024-03-16T06:21:00,axn,31.97
2024-03-16T06:22:00,axn,31.80
2024-03-16T06:23:00,axn,31.63
2024-03-16T06:24:00,axn,31.83
2024-03-16T06:25:00,axn,32.22
2024-03-16T06:26:00,axn,32.67
2024-03-16T06:27:00,axn,32.35
2024-03-16T06:28:00,axn,32.28
2024-03-16T06:29:00,axn,32.96
2024-03-16T06:30:00,axn,32.96
2024-03-16T06:31:00,axn,32.20
2024-03-16T06:32:00,axn,31.80
2024-03-16T06:33:00,axn,31.43
2024-03-16T06:34:00,axn,31.23
2024-03-16T06:35:00,axn,31.16
2024-03-16T06:36:00,axn,31.57
2024-03-16T06:37:00,axn,31.72
2024-03-16T06:38:00,axn,31.87
2024-03-16T06:39:00,axn,31.98
2024-03-16T06:40:00,axn,31.84
2024-03-16T06:41:00,axn,31.81
2024-03-16T06:42:00,axn,31.93
2024-03-16T06:43:00,axn,31.74
2024-03-16T06:44:00,axn,31.35
2024-03-16T06:45:00,axn,30.80
2024-03-16T06:46:00,axn,30.75
2024-03-16T06:47:00,axn,35.36
2024-03-16T06:48:00,axn,35.41
2024-03-16T06:49:00,axn,31.47
2024-03-16T06:50:00,axn,31.48
2024-03-16T06:51:00,axn,31.56
2024-03-16T06:52:00,axn,31.78
2024-03-16T06:53:00,axn,31.68
2024-03-16T06:54:00,axn,31.70
2024-03-16T06:55:00,axn,31.36
2024-03-16T06:56:00,axn,30.94
2024-03-16T06:57:00,axn,30.65
2024-03-16T06:58:00,axn,30.60
2024-03-16T06:59:00,axn,30.35
2024-03-16T07:00:00,axn,35.96
2024-03-16T07:01:00,axn,30.79
2024-03-16T07:02:00,axn,31.74
2024-03-16T07:03:00,axn,31.25
2024-03-16T07:04:00,axn,32.41
2024-03-16T07:05:00,axn,32.30
2024-03-16T07:06:00,axn,31.69
2024-03-16T07:07:00,axn,31.27
2024-03-16T07:08:00,axn,31.30
2024-03-16T07:09:00,axn,31.21
2024-03-16T07:10:00,axn,31.29
2024-03-16T07:11:00,axn,31.34
2024-03-16T07:12:00,axn,31.47
2024-03-16T07:13:00,axn,31.23
2024-03-16T07:14:00,axn,31.93
2024-03-16T07:15:00,axn,32.05
2024-03-16T07:16:00,axn,31.79
2024-03-16T07:17:00,axn,32.22
2024-03-16T07:18:00,axn,32.13
2024-03-16T07:19:00,axn,36.50
2024-03-16T07:20:00,axn,32.52
2024-03-16T07:21:00,axn,32.25
2024-03-16T07:22:00,axn,32.31
2024-03-16T07:23:00,axn,32.55
2024-03-16T07:24:00,axn,32.58
2024-03-16T07:25:00,axn,32.77
2024-03-16T07:26:00,axn,32.95
2024-03-16T07:27:00,axn,33.39
2024-03-16T07:28:00,axn,33.60
2024-03-16T07:29:00,axn,35.70
2024-03-16T07:30:00,axn,33.69
2024-03-16T07:31:00,axn,34.36
2024-03-16T07:32:00,axn,34.16
2024-03-16T07:33:00,axn,33.93
2024-03-16T07:34:00,axn,35.61
2024-03-16T07:35:00,axn,33.76
2024-03-16T07:36:00,axn,33.77
2024-03-16T07:37:00,axn,33.86
2024-03-16T07:38:00,axn,35.23
2024-03-16T07:39:00,axn,34.05
2024-03-16T07:40:00,axn,34.09
2024-03-16T07:41:00,axn,33.87
2024-03-16T07:42:00,axn,35.23
2024-03-16T07:43:00,axn,33.72
2024-03-16T07:44:00,axn,33.64
2024-03-16T07:45:00,axn,33.57
2024-03-16T07:46:00,axn,33.58
2024-03-16T07:47:00,axn,33.99
2024-03-16T07:48:00,axn,33.81
2024-03-16T07:49:00,axn,33.85
2024-03-16T07:50:00,axn,38.25
2024-03-16T07:51:00,axn,36.36
2024-03-16T07:52:00,axn,36.52
2024-03-16T07:53:00,axn,33.63
2024-03-16T07:54:00,axn,33.98
2024-03-16T07:55:00,axn,33.81
2024-03-16T07:56:00,axn,33.59
2024-03-16T07:57:00,axn,34.63
2024-03-16T07:58:00,axn,35.57
2024-03-16T07:59:00,axn,36.37
2024-03-16T08:00:00,axn,35.52
2024-03-16T08:01:00,axn,35.46
2024-03-16T08:02:00,axn,35.16
2024-03-16T08:03:00,axn,36.80
2024-03-16T08:04:00,axn,38.52
2024-03-16T08:05:00,axn,35.11
2024-03-16T08:06:00,axn,38.04
2024-03-16T08:07:00,axn,36.14
2024-03-16T08:08:00,axn,38.54
2024-03-16T08:09:00,axn,35.74
2024-03-16T08:10:00,axn,37.49
2024-03-16T08:11:00,axn,35.49
2024-03-16T08:12:00,axn,35.54
2024-03-16T08:13:00,axn,36.64
2024-03-16T08:14:00,axn,37.87
2024-03-16T08:15:00,axn,38.84
2024-03-16T08:16:00,axn,35.57
2024-03-16T08:17:00,axn,37.82
2024-03-16T08:18:00,axn,37.70
2024-03-16T08:19:00,axn,38.82
2024-03-16T08:20:00,axn,41.86
2024-03-16T08:21:00,axn,42.38
2024-03-16T08:22:00,axn,35.93
2024-03-16T08:23:00,axn,35.92
2024-03-16T08:24:00,axn,37.03
2024-03-16T08:25:00,axn,36.18
2024-03-16T08:26:00,axn,36.30
2024-03-16T08:27:00,axn,35.93
2024-03-16T08:28:00,axn,36.03
2024-03-16T08:29:00,axn,37.50
2024-03-16T08:30:00,axn,35.65
2024-03-16T08:31:00,axn,38.41
2024-03-16T08:32:00,axn,38.67
2024-03-16T08:33:00,axn,38.73
2024-03-16T08:34:00,axn,38.72
2024-03-16T08:35:00,axn,36.55
2024-03-16T08:36:00,axn,37.30
2024-03-16T08:37:00,axn,35.48
2024-03-16T08:38:00,axn,36.92
2024-03-16T08:39:00,axn,38.69
2024-03-16T08:40:00,axn,36.91
2024-03-16T08:41:00,axn,35.76
2024-03-16T08:42:00,axn,37.26
2024-03-16T08:43:00,axn,35.07
2024-03-16T08:44:00,axn,35.79
2024-03-16T08:45:00,axn,37.19
2024-03-16T08:46:00,axn,37.91
2024-03-16T08:47:00,axn,37.06
2024-03-16T08:48:00,axn,37.20
2024-03-16T08:49:00,axn,35.48
2024-03-16T08:50:00,axn,35.47
2024-03-16T08:51:00,axn,41.86
2024-03-16T08:52:00,axn,37.18
2024-03-16T08:53:00,axn,35.85
2024-03-16T08:54:00,axn,37.45
2024-03-16T08:55:00,axn,35.66
2024-03-16T08:56:00,axn,38.13
2024-03-16T08:57:00,axn,37.50
2024-03-16T08:58:00,axn,36.12
2024-03-16T08:59:00,axn,37.51
2024-03-16T09:00:00,axn,36.64
2024-03-16T09:01:00,axn,35.81
2024-03-16T09:02:00,axn,37.90
2024-03-16T09:03:00,axn,35.93
2024-03-16T09:04:00,axn,36.26
2024-03-16T09:05:00,axn,38.26
2024-03-16T09:06:00,axn,36.25
2024-03-16T09:07:00,axn,38.81
2024-03-16T09:08:00,axn,38.75
2024-03-16T09:09:00,axn,37.66
2024-03-16T09:10:00,axn,37.62
2024-03-16T09:11:00,axn,37.52
2024-03-16T09:12:00,axn,35.94
2024-03-16T09:13:00,axn,35.38
2024-03-16T09:14:00,axn,36.52
2024-03-16T09:15:00,axn,36.76
2024-03-16T09:16:00,axn,36.30
2024-03-16T09:17:00,axn,38.47
2024-03-16T09:18:00,axn,36.28
2024-03-16T09:19:00,axn,37.79
2024-03-16T09:20:00,axn,38.09
2024-03-16T09:21:00,axn,41.89
2024-03-16T09:22:00,axn,42.70
2024-03-16T09:23:00,axn,37.59
2024-03-16T09:24:00,axn,37.65
2024-03-16T09:25:00,axn,37.20
2024-03-16T09:26:00,axn,36.50
2024-03-16T09:27:00,axn,37.62
2024-03-16T09:28:00,axn,38.18
2024-03-16T09:29:00,axn,38.22
2024-03-16T09:30:00,axn,37.91
2024-03-16T09:31:00,axn,36.66
2024-03-16T09:32:00,axn,35.82
2024-03-16T09:33:00,axn,37.06
2024-03-16T09:34:00,axn,36.26
2024-03-16T09:35:00,axn,36.91
2024-03-16T09:36:00,axn,36.88
2024-03-16T09:37:00,axn,35.67
2024-03-16T09:38:00,axn,35.84
2024-03-16T09:39:00,axn,36.14
2024-03-16T09:40:00,axn,35.86
2024-03-16T09:41:00,axn,38.90
2024-03-16T09:42:00,axn,35.76
2024-03-16T09:43:00,axn,36.71
2024-03-16T09:44:00,axn,50.42
2024-03-16T09:45:00,axn,50.15
2024-03-16T09:46:00,axn,50.03
2024-03-16T09:47:00,axn,49.91
2024-03-16T09:48:00,axn,49.76
2024-03-16T09:49:00,axn,50.14
2024-03-16T09:50:00,axn,36.13
2024-03-16T09:51:00,axn,37.71
2024-03-16T09:52:00,axn,41.02
2024-03-16T09:53:00,axn,36.78
2024-03-16T09:54:00,axn,36.94
2024-03-16T09:55:00,axn,35.94
2024-03-16T09:56:00,axn,38.07
2024-03-16T09:57:00,axn,35.87
2024-03-16T09:58:00,axn,36.67
2024-03-16T09:59:00,axn,36.09
2024-03-16T10:00:00,axn,36.25
2024-03-16T10:01:00,axn,37.17
2024-03-16T10:02:00,axn,37.32
2024-03-16T10:03:00,axn,37.01
2024-03-16T10:04:00,axn,36.49
2024-03-16T10:05:00,axn,36.62
2024-03-16T10:06:00,axn,36.59
2024-03-16T10:07:00,axn,37.45
2024-03-16T10:08:00,axn,36.64
2024-03-16T10:09:00,axn,36.62
2024-03-16T10:10:00,axn,36.51
2024-03-16T10:11:00,axn,36.56
2024-03-16T10:12:00,axn,36.71
2024-03-16T10:13:00,axn,37.07
2024-03-16T10:14:00,axn,37.01
2024-03-16T10:15:00,axn,37.49
2024-03-16T10:16:00,axn,37.03
2024-03-16T10:17:00,axn,36.20
2024-03-16T10:18:00,axn,36.03
2024-03-16T10:19:00,axn,36.84
2024-03-16T10:20:00,axn,37.54
2024-03-16T10:21:00,axn,36.73
2024-03-16T10:22:00,axn,36.42
2024-03-16T10:23:00,axn,52.57
2024-03-16T10:24:00,axn,36.66
2024-03-16T10:25:00,axn,38.27
2024-03-16T10:26:00,axn,37.41
2024-03-16T10:27:00,axn,37.99
2024-03-16T10:28:00,axn,36.39
2024-03-16T10:29:00,axn,37.47
2024-03-16T10:30:00,axn,38.66
2024-03-16T10:31:00,axn,37.31
2024-03-16T10:32:00,axn,37.30
2024-03-16T10:33:00,axn,37.53
2024-03-16T10:34:00,axn,38.20
2024-03-16T10:35:00,axn,37.36
2024-03-16T10:36:00,axn,37.43
2024-03-16T10:37:00,axn,38.02
2024-03-16T10:38:00,axn,37.55
2024-03-16T10:39:00,axn,38.11
2024-03-16T10:40:00,axn,37.42
2024-03-16T10:41:00,axn,36.54
2024-03-16T10:42:00,axn,36.20
2024-03-16T10:43:00,axn,36.09
2024-03-16T10:44:00,axn,36.24
2024-03-16T10:45:00,axn,36.22
2024-03-16T10:46:00,axn,35.86
2024-03-16T10:47:00,axn,35.89
2024-03-16T10:48:00,axn,38.83
2024-03-16T10:49:00,axn,35.90
2024-03-16T10:50:00,axn,35.97
2024-03-16T10:51:00,axn,36.87
2024-03-16T10:52:00,axn,47.66
2024-03-16T10:53:00,axn,46.93
2024-03-16T10:54:00,axn,51.50
2024-03-16T10:55:00,axn,47.19
2024-03-16T10:56:00,axn,37.30
2024-03-16T10:57:00,axn,37.29
2024-03-16T10:58:00,axn,36.86
2024-03-16T10:59:00,axn,36.90
2024-03-16T11:00:00,axn,36.83
2024-03-16T11:01:00,axn,36.98
2024-03-16T11:02:00,axn,37.00
2024-03-16T11:03:00,axn,37.13
2024-03-16T11:04:00,axn,36.92
2024-03-16T11:05:00,axn,37.11
2024-03-16T11:06:00,axn,36.66
2024-03-16T11:07:00,axn,36.62
2024-03-16T11:08:00,axn,36.47
2024-03-16T11:09:00,axn,36.01
2024-03-16T11:10:00,axn,36.57
2024-03-16T11:11:00,axn,36.16
2024-03-16T11:12:00,axn,35.89
2024-03-16T11:13:00,axn,36.28
2024-03-16T11:14:00,axn,36.09
2024-03-16T11:15:00,axn,36.27
2024-03-16T11:16:00,axn,35.81
2024-03-16T11:17:00,axn,35.93
2024-03-16T11:18:00,axn,36.08
2024-03-16T11:19:00,axn,36.31
2024-03-16T11:20:00,axn,36.32
2024-03-16T11:21:00,axn,36.19
2024-03-16T11:22:00,axn,36.21
2024-03-16T11:23:00,axn,36.15
2024-03-16T11:24:00,axn,36.04
2024-03-16T11:25:00,axn,40.71
2024-03-16T11:26:00,axn,36.02
2024-03-16T11:27:00,axn,36.48
2024-03-16T11:28:00,axn,36.28
2024-03-16T11:29:00,axn,35.81
2024-03-16T11:30:00,axn,41.42
2024-03-16T11:31:00,axn,41.44
2024-03-16T11:32:00,axn,41.45
2024-03-16T11:33:00,axn,35.50
2024-03-16T11:34:00,axn,34.92
2024-03-16T11:35:00,axn,36.27
2024-03-16T11:36:00,axn,35.14
2024-03-16T11:37:00,axn,35.19
2024-03-16T11:38:00,axn,35.28
2024-03-16T11:39:00,axn,35.98
2024-03-16T11:40:00,axn,36.05
2024-03-16T11:41:00,axn,36.04
2024-03-16T11:42:00,axn,35.76
2024-03-16T11:43:00,axn,35.82
2024-03-16T11:44:00,axn,35.86
2024-03-16T11:45:00,axn,35.60
2024-03-16T11:46:00,axn,35.70
2024-03-16T11:47:00,axn,35.60
2024-03-16T11:48:00,axn,35.69
2024-03-16T11:49:00,axn,35.78
2024-03-16T11:50:00,axn,35.58
2024-03-16T11:51:00,axn,35.72
2024-03-16T11:52:00,axn,35.32
2024-03-16T11:53:00,axn,35.08
2024-03-16T11:54:00,axn,35.18
2024-03-16T11:55:00,axn,35.36
2024-03-16T11:56:00,axn,34.95
2024-03-16T11:57:00,axn,39.25
2024-03-16T11:58:00,axn,34.87
2024-03-16T11:59:00,axn,34.81
2024-03-16T12:00:00,axn,34.75
2024-03-16T12:01:00,axn,35.22
2024-03-16T12:02:00,axn,35.01
2024-03-16T12:03:00,axn,36.12
2024-03-16T12:04:00,axn,35.51
2024-03-16T12:05:00,axn,35.28
2024-03-16T12:06:00,axn,35.12
2024-03-16T12:07:00,axn,35.02
2024-03-16T12:08:00,axn,35.14
2024-03-16T12:09:00,axn,35.44
2024-03-16T12:10:00,axn,35.65
2024-03-16T12:11:00,axn,35.02
2024-03-16T12:12:00,axn,35.23
2024-03-16T12:13:00,axn,35.44
2024-03-16T12:14:00,axn,35.41
2024-03-16T12:15:00,axn,35.90
2024-03-16T12:16:00,axn,35.28
2024-03-16T12:17:00,axn,35.27
2024-03-16T12:18:00,axn,34.91
2024-03-16T12:19:00,axn,34.90
2024-03-16T12:20:00,axn,35.05
2024-03-16T12:21:00,axn,34.87
2024-03-16T12:22:00,axn,35.10
2024-03-16T12:23:00,axn,34.76
2024-03-16T12:24:00,axn,35.03
2024-03-16T12:25:00,axn,34.96
2024-03-16T12:26:00,axn,35.13
2024-03-16T12:27:00,axn,35.44
2024-03-16T12:28:00,axn,36.46
2024-03-16T12:29:00,axn,39.54
2024-03-16T12:30:00,axn,35.56
2024-03-16T12:31:00,axn,35.83
2024-03-16T12:32:00,axn,35.50
2024-03-16T12:33:00,axn,35.55
2024-03-16T12:34:00,axn,35.23
2024-03-16T12:35:00,axn,35.32
2024-03-16T12:36:00,axn,35.68
2024-03-16T12:37:00,axn,35.53
2024-03-16T12:38:00,axn,35.43
2024-03-16T12:39:00,axn,36.19
2024-03-16T12:40:00,axn,35.89
2024-03-16T12:41:00,axn,35.80
2024-03-16T12:42:00,axn,35.73
2024-03-16T12:43:00,axn,35.84
2024-03-16T12:44:00,axn,35.64
2024-03-16T12:45:00,axn,35.81
2024-03-16T12:46:00,axn,35.64
2024-03-16T12:47:00,axn,35.40
2024-03-16T12:48:00,axn,35.10
2024-03-16T12:49:00,axn,35.25
2024-03-16T12:50:00,axn,35.38
2024-03-16T12:51:00,axn,36.20
2024-03-16T12:52:00,axn,35.34
2024-03-16T12:53:00,axn,35.24
2024-03-16T12:54:00,axn,39.84
2024-03-16T12:55:00,axn,35.55
2024-03-16T12:56:00,axn,35.25
2024-03-16T12:57:00,axn,35.39
2024-03-16T12:58:00,axn,35.53
2024-03-16T12:59:00,axn,35.00
2024-03-16T13:00:00,axn,35.01
2024-03-16T13:01:00,axn,35.34
2024-03-16T13:02:00,axn,34.92
2024-03-16T13:03:00,axn,35.11
2024-03-16T13:04:00,axn,35.41
2024-03-16T13:05:00,axn,35.27
2024-03-16T13:06:00,axn,35.37
2024-03-16T13:07:00,axn,35.00
2024-03-16T13:08:00,axn,35.06
2024-03-16T13:09:00,axn,34.98
2024-03-16T13:10:00,axn,35.04
2024-03-16T13:11:00,axn,36.26
2024-03-16T13:12:00,axn,35.53
2024-03-16T13:13:00,axn,36.11
2024-03-16T13:14:00,axn,36.34
2024-03-16T13:15:00,axn,36.48
2024-03-16T13:16:00,axn,36.01
2024-03-16T13:17:00,axn,36.66
2024-03-16T13:18:00,axn,36.05